Previsão horária em Julianowo

Hoje, 21 Junho, Segunda-feira

Tempo Temperatura Precipitação Vento Pressão Humidade
00:00 +20°C° 0 mm 3 m/s 745 mmHg 88%
01:00 +20°C° 0 mm 2 m/s 745 mmHg 91%
02:00 +20°C° 0 mm 2 m/s 745 mmHg 91%
03:00 +19°C° 0 mm 2 m/s 745 mmHg 91%
04:00 +19°C° 0 mm 2 m/s 745 mmHg 91%
05:00 +21°C° 0 mm 3 m/s 745 mmHg 84%
06:00 +22°C° 0 mm 4 m/s 745 mmHg 77%
07:00 +25°C° 0 mm 5 m/s 745 mmHg 70%
08:00 +27°C° 0 mm 5 m/s 745 mmHg 63%
09:00 +28°C° 0 mm 5 m/s 745 mmHg 56%
10:00 +29°C° 0 mm 5 m/s 745 mmHg 49%
11:00 +30°C° 0 mm 5 m/s 745 mmHg 47%
12:00 +32°C° 0 mm 5 m/s 744 mmHg 45%
13:00 +32°C° 0 mm 5 m/s 744 mmHg 43%
14:00 +32°C° 0 mm 5 m/s 744 mmHg 45%
15:00 +32°C° 0 mm 5 m/s 744 mmHg 46%
16:00 +32°C° 0 mm 5 m/s 743 mmHg 47%
17:00 +29°C° 0 mm 4 m/s 743 mmHg 53%
18:00 +28°C° 0 mm 4 m/s 743 mmHg 60%
19:00 +26°C° 0 mm 3 m/s 743 mmHg 66%
20:00 +25°C° 0 mm 3 m/s 743 mmHg 70%
21:00 +24°C° 0 mm 3 m/s 743 mmHg 74%
22:00 +22°C° 0 mm 3 m/s 743 mmHg 78%
23:00 +21°C° 0 mm 2 m/s 743 mmHg 82%

Amanhã, 22 Junho, Terça-feira

Tempo Temperatura Precipitação Vento Pressão Humidade
00:00 +21°C° 0 mm 2 m/s 743 mmHg 86%
01:00 +20°C° 0 mm 2 m/s 743 mmHg 91%
02:00 +19°C° 0 mm 2 m/s 743 mmHg 91%
03:00 +19°C° 0 mm 2 m/s 743 mmHg 92%
04:00 +19°C° 0 mm 2 m/s 743 mmHg 93%
05:00 +21°C° 0 mm 2 m/s 743 mmHg 85%
06:00 +24°C° 0 mm 3 m/s 743 mmHg 78%
07:00 +26°C° 0 mm 3 m/s 744 mmHg 70%
08:00 +26°C° 0.5 mm 3 m/s 744 mmHg 70%
09:00 +27°C° 0.5 mm 3 m/s 744 mmHg 69%
10:00 +28°C° 0.5 mm 3 m/s 744 mmHg 68%
11:00 +28°C° 0.7 mm 3 m/s 744 mmHg 65%
12:00 +29°C° 0.7 mm 2 m/s 744 mmHg 61%
13:00 +30°C° 0.7 mm 2 m/s 744 mmHg 58%
14:00 +29°C° 0.6 mm 2 m/s 744 mmHg 63%
15:00 +28°C° 0.6 mm 2 m/s 745 mmHg 69%
16:00 +27°C° 0.6 mm 3 m/s 745 mmHg 74%
17:00 +25°C° 1.2 mm 3 m/s 745 mmHg 81%
18:00 +22°C° 1.2 mm 3 m/s 745 mmHg 87%
19:00 +21°C° 1.2 mm 3 m/s 745 mmHg 94%
20:00 +20°C° 1.2 mm 3 m/s 746 mmHg 95%
21:00 +19°C° 1.2 mm 3 m/s 746 mmHg 96%
22:00 +18°C° 1.2 mm 3 m/s 747 mmHg 98%
23:00 +18°C° 0.1 mm 3 m/s 747 mmHg 98%

Depois de amanhã, 23 Junho, Quarta-feira

Tempo Temperatura Precipitação Vento Pressão Humidade
00:00 +17°C° 0.1 mm 2 m/s 747 mmHg 97%
01:00 +17°C° 0.1 mm 2 m/s 747 mmHg 97%
02:00 +16°C° 0 mm 2 m/s 747 mmHg 97%
03:00 +16°C° 0 mm 2 m/s 747 mmHg 97%
04:00 +16°C° 0 mm 2 m/s 747 mmHg 96%
05:00 +17°C° 0.4 mm 2 m/s 747 mmHg 95%
06:00 +17°C° 0.4 mm 2 m/s 747 mmHg 93%
07:00 +18°C° 0.4 mm 2 m/s 748 mmHg 91%
08:00 +19°C° 0.3 mm 2 m/s 748 mmHg 92%
09:00 +19°C° 0.3 mm 2 m/s 748 mmHg 92%
10:00 +19°C° 0.3 mm 2 m/s 748 mmHg 92%
11:00 +20°C° 0.4 mm 3 m/s 749 mmHg 89%
12:00 +21°C° 0.4 mm 3 m/s 749 mmHg 85%
13:00 +22°C° 0.4 mm 3 m/s 749 mmHg 82%
14:00 +24°C° 0.1 mm 3 m/s 749 mmHg 79%
15:00 +24°C° 0.1 mm 3 m/s 749 mmHg 76%
16:00 +25°C° 0.1 mm 3 m/s 749 mmHg 74%
17:00 +24°C° 0.2 mm 3 m/s 749 mmHg 78%
18:00 +23°C° 0.2 mm 2 m/s 749 mmHg 82%
19:00 +21°C° 0.2 mm 2 m/s 749 mmHg 87%
20:00 +19°C° 0 mm 2 m/s 749 mmHg 90%
21:00 +18°C° 0 mm 2 m/s 749 mmHg 93%
22:00 +17°C° 0 mm 2 m/s 749 mmHg 96%
23:00 +16°C° 0 mm 2 m/s 749 mmHg 96%

24 Junho, Quinta-feira

Tempo Temperatura Precipitação Vento Pressão Humidade
00:00 +16°C° 0 mm 2 m/s 749 mmHg 96%
01:00 +15°C° 0 mm 2 m/s 749 mmHg 96%
02:00 +15°C° 0.2 mm 2 m/s 749 mmHg 96%
03:00 +15°C° 0.2 mm 2 m/s 749 mmHg 95%
04:00 +15°C° 0.2 mm 1 m/s 749 mmHg 95%
05:00 +18°C° 0 mm 1 m/s 749 mmHg 89%
06:00 +20°C° 0 mm 1 m/s 749 mmHg 82%
07:00 +21°C° 0 mm 1 m/s 749 mmHg 76%
08:00 +23°C° 0 mm 1 m/s 749 mmHg 71%
09:00 +25°C° 0 mm 1 m/s 749 mmHg 66%
10:00 +26°C° 0 mm 1 m/s 749 mmHg 62%
11:00 +27°C° 0 mm 2 m/s 749 mmHg 60%
12:00 +28°C° 0 mm 2 m/s 749 mmHg 59%
13:00 +28°C° 0 mm 2 m/s 749 mmHg 58%
14:00 +28°C° 0 mm 2 m/s 749 mmHg 59%
15:00 +28°C° 0 mm 2 m/s 749 mmHg 59%
16:00 +28°C° 0 mm 2 m/s 748 mmHg 60%
17:00 +27°C° 0 mm 2 m/s 748 mmHg 67%
18:00 +25°C° 0 mm 2 m/s 748 mmHg 74%
19:00 +24°C° 0 mm 2 m/s 748 mmHg 81%
20:00 +23°C° 0.1 mm 2 m/s 748 mmHg 86%
21:00 +20°C° 0.1 mm 2 m/s 748 mmHg 91%
22:00 +19°C° 0.1 mm 2 m/s 748 mmHg 95%
23:00 +18°C° 0 mm 2 m/s 748 mmHg 96%

25 Junho, Sexta-feira

Tempo Temperatura Precipitação Vento Pressão Humidade
00:00 +18°C° 0 mm 2 m/s 747 mmHg 97%
01:00 +17°C° 0 mm 2 m/s 747 mmHg 97%
02:00 +17°C° 0 mm 2 m/s 747 mmHg 97%
03:00 +17°C° 0 mm 2 m/s 747 mmHg 97%
04:00 +18°C° 0 mm 1 m/s 746 mmHg 96%
05:00 +18°C° 1.5 mm 2 m/s 746 mmHg 96%
06:00 +19°C° 1.5 mm 2 m/s 746 mmHg 95%
07:00 +19°C° 1.5 mm 2 m/s 746 mmHg 95%
08:00 +20°C° 1.7 mm 2 m/s 745 mmHg 93%
09:00 +21°C° 1.7 mm 2 m/s 745 mmHg 92%
10:00 +23°C° 1.7 mm 2 m/s 745 mmHg 90%
11:00 +23°C° 0.8 mm 2 m/s 745 mmHg 89%
12:00 +22°C° 0.8 mm 3 m/s 745 mmHg 88%
13:00 +22°C° 0.8 mm 3 m/s 745 mmHg 87%
14:00 +21°C° 0.5 mm 4 m/s 744 mmHg 90%
15:00 +20°C° 0.5 mm 4 m/s 744 mmHg 92%
16:00 +19°C° 0.5 mm 5 m/s 744 mmHg 95%
17:00 +19°C° 0.4 mm 4 m/s 744 mmHg 96%
18:00 +18°C° 0.4 mm 4 m/s 744 mmHg 96%
19:00 +18°C° 0.4 mm 4 m/s 744 mmHg 97%
20:00 +18°C° 0.3 mm 4 m/s 744 mmHg 97%
21:00 +18°C° 0.3 mm 4 m/s 744 mmHg 97%
22:00 +17°C° 0.3 mm 4 m/s 744 mmHg 98%
23:00 +17°C° 0 mm 4 m/s 744 mmHg 97%

26 Junho, Sábado

Tempo Temperatura Precipitação Vento Pressão Humidade
00:00 +15°C° 0 mm 4 m/s 744 mmHg 97%
01:00 +15°C° 0 mm 4 m/s 744 mmHg 97%
02:00 +14°C° 0 mm 4 m/s 744 mmHg 96%
03:00 +14°C° 0 mm 4 m/s 744 mmHg 95%
04:00 +13°C° 0 mm 3 m/s 744 mmHg 95%
05:00 +14°C° 0 mm 4 m/s 744 mmHg 89%
06:00 +17°C° 0 mm 4 m/s 745 mmHg 83%
07:00 +18°C° 0 mm 4 m/s 745 mmHg 77%
08:00 +19°C° 0 mm 4 m/s 745 mmHg 69%
09:00 +21°C° 0 mm 4 m/s 745 mmHg 62%
10:00 +22°C° 0 mm 5 m/s 745 mmHg 54%
11:00 +22°C° 0 mm 5 m/s 745 mmHg 52%
12:00 +23°C° 0 mm 5 m/s 745 mmHg 51%
13:00 +23°C° 0 mm 5 m/s 745 mmHg 49%
14:00 +23°C° 0 mm 5 m/s 745 mmHg 50%
15:00 +22°C° 0 mm 5 m/s 745 mmHg 51%
16:00 +22°C° 0 mm 5 m/s 745 mmHg 52%
17:00 +21°C° 0 mm 4 m/s 745 mmHg 60%
18:00 +19°C° 0 mm 4 m/s 745 mmHg 68%
19:00 +18°C° 0 mm 3 m/s 745 mmHg 75%
20:00 +17°C° 0 mm 3 m/s 746 mmHg 81%
21:00 +16°C° 0 mm 3 m/s 746 mmHg 87%
22:00 +14°C° 0 mm 2 m/s 746 mmHg 94%
23:00 +14°C° 0 mm 3 m/s 746 mmHg 93%
Mostrar mais

Necessitamos do seu Consentimento

A Meteoprog e os seus Fornecedores de Serviços podem armazenar e aceder a dados pessoais como cookies, identificadores do dispositivo ou outras tecnologias semelhantes existentes no seu dispositivo e processar estes dados para personalizar conteúdos e anúncios, assim como funcionalidades nas redes sociais e análise de tráfego.

  • Armazenar e/ou aceder a informações no seu dispositivo

    Os cookies, identificadores do dispositivo ou outras informações podem ser armazenados ou acedidos no seu dispositivo, para os fins acima indicados.

  • Anúncios e conteúdos personalizados, medição de anúncios e conteúdos, dados sobre o público-alvo e desenvolvimento de produtos

    Os anúncios e os conteúdos podem ser personalizados com base num perfil. Podem ser adicionados dados adicionais para uma maior personalização dos anúncios e dos conteúdos. A eficácia dos anúncios e dos conteúdos pode ser medida. Podem ser obtidas informações sobre o público que visualizou os anúncios e os conteúdos. Estes dados podem ser usados para desenvolver ou melhorar sistemas, softwares ou a experiência do utilizador.

Ao clicar em "Eu concordo”, permitirá o uso de cookies, identificadores do dispositivo e web beacons mencionados ou outras tecnologias semelhantes. As configurações do navegador do seu dispositivo podem ser alteradas.

Para certos fins, podem ser invocados interesses legítimos ao invés de consentimento. Pode ler mais informação sobre este assunto na nossa Política de Privacidade e Cookies.